Weather History for Bigfork, MN

Change the Weather History Date:

Tuesday, January 22, 2013

  Actual Average (KGPZ) Record (KGPZ)
Temperature  
Mean Temperature -17 °F -  
Max Temperature -2 °F 23 °F 50 °F (1942)
Min Temperature -32 °F 1 °F -38 °F (1936)
Degree Days  
Heating Degree Days 82    
Moisture  
Dew Point -25 °F    
Average Humidity 67    
Maximum Humidity 77    
Minimum Humidity 55    
Precipitation  
Precipitation 0.00 in - - ()
Sea Level Pressure  
Sea Level Pressure 30.17 in    
Wind  
Wind Speed 4 mph (SW)    
Max Wind Speed 10 mph    
Max Gust Speed -    
Visibility 10 miles    
Events      
Averages and records for this station are not official NWS values.
T = Trace of Precipitation, MM = Missing Value Source: NWS Daily Summary

Daily Weather History Graph

Daily Weather History Graph

Search for Another Location

Airport:

Trip Planner

Search our weather history database for the weather conditions in past years. The results will help you decide how hot, cold, wet, or windy it might be!

Date:

Astronomy

Jan. 22, 2013 Rise Set
Actual Time 7:52 AM CST 5:00 PM CST
Civil Twilight 7:18 AM CST 5:34 PM CST
Nautical Twilight 6:40 AM CST 6:12 PM CST
Astronomical Twilight 6:04 AM CST 6:49 PM CST
Moon 1:20 PM CST (1/22) 4:17 AM CST (1/22)
Length of Visible Light 10h 15m
Length of Day
9h 07m
Waxing Gibbous, 83% of the Moon is Illuminated
Jan 22
Waxing Gibbous
Jan 26
Full
Feb 3
Last Quarter
Feb 10
New
Feb 17
First Quarter

Hourly Weather History & Observations

Time (CST) Temp. Windchill Dew Point Humidity Pressure Visibility Wind Dir Wind Speed Gust Speed Precip Events Conditions
12:13 AM -20.2 °F - -27.4 °F 69% 30.18 in 10.0 mi North - - N/A   Clear
12:33 AM -20.2 °F - -27.4 °F 69% 30.18 in 10.0 mi North - - N/A   Clear
12:53 AM -20.2 °F - -27.4 °F 69% 30.19 in 10.0 mi North - - N/A   Clear
1:13 AM -22.0 °F - -29.2 °F 69% 30.19 in 10.0 mi North - - N/A   Clear
1:33 AM -23.8 °F - -31.0 °F 69% 30.19 in 10.0 mi North - - N/A   Clear
1:53 AM -25.6 °F - -31.0 °F 76% 30.19 in 10.0 mi North - - N/A   Clear
2:13 AM -25.6 °F - -32.8 °F 69% 30.20 in 10.0 mi North - - N/A   Clear
2:33 AM -27.4 °F - -34.6 °F 69% 30.20 in 10.0 mi North - - N/A   Clear
2:53 AM -27.4 °F - -34.6 °F 69% 30.20 in 10.0 mi North - - N/A   Clear
3:13 AM -29.2 °F - -36.4 °F 68% 30.20 in 10.0 mi North - - N/A   Clear
3:33 AM -29.2 °F - -36.4 °F 68% 30.20 in 10.0 mi North - - N/A   Clear
3:53 AM -31.0 °F - -38.2 °F 68% 30.21 in 10.0 mi North - - N/A   Clear
4:13 AM -31.0 °F - -38.2 °F 68% 30.21 in 10.0 mi North - - N/A   Clear
4:33 AM -32.8 °F - -40.0 °F 68% 30.21 in 10.0 mi North - - N/A   Clear
4:53 AM -31.0 °F - -38.2 °F 68% 30.21 in 10.0 mi North - - N/A   Clear
5:13 AM -31.0 °F - -38.2 °F 68% 30.22 in 10.0 mi North - - N/A   Clear
5:33 AM -31.0 °F - -38.2 °F 68% 30.22 in 10.0 mi North - - N/A   Clear
5:53 AM -29.2 °F - -36.4 °F 68% 30.22 in 10.0 mi North - - N/A   Clear
6:14 AM -29.2 °F - -36.4 °F 68% 30.21 in 10.0 mi North - - N/A   Clear
6:33 AM -29.2 °F - -38.2 °F 62% 30.21 in 10.0 mi North - - N/A   Clear
6:53 AM -32.8 °F - -41.8 °F 62% 30.21 in 10.0 mi North - - N/A   Clear
7:13 AM -29.2 °F - -38.2 °F 62% 30.21 in 10.0 mi North - - N/A   Clear
7:33 AM -31.0 °F - -38.2 °F 68% 30.20 in 10.0 mi North - - N/A   Clear
7:53 AM -31.0 °F - -38.2 °F 68% 30.21 in 10.0 mi North - - N/A   Clear
8:13 AM -32.8 °F - -40.0 °F 68% 30.21 in 10.0 mi North - - N/A   Clear
8:33 AM -32.8 °F - -40.0 °F 68% 30.22 in 10.0 mi North - - N/A   Clear
8:53 AM -27.4 °F - -34.6 °F 69% 30.22 in 10.0 mi North - - N/A   Clear
9:13 AM -25.6 °F - -32.8 °F 69% 30.22 in 10.0 mi North - - N/A   Clear
9:33 AM -22.0 °F - -29.2 °F 69% 30.21 in 10.0 mi North - - N/A   Clear
9:53 AM -20.2 °F - -27.4 °F 69% 30.22 in 10.0 mi North - - N/A   Clear
10:13 AM -16.6 °F - -23.8 °F 70% 30.22 in 10.0 mi North - - N/A   Clear
10:34 AM -14.8 °F - -20.2 °F 77% 30.22 in 10.0 mi North - - N/A   Clear
10:53 AM -11.2 °F - -18.4 °F 70% 30.22 in 10.0 mi North - - N/A   Clear
11:13 AM -9.4 °F - -18.4 °F 65% 30.22 in 10.0 mi North - - N/A   Clear
11:33 AM -7.6 °F - -18.4 °F 59% 30.21 in 10.0 mi North - - N/A   Clear
11:53 AM -7.6 °F - -18.4 °F 59% 30.21 in 10.0 mi North - - N/A   Clear
12:13 PM -7.6 °F - -16.6 °F 65% 30.21 in 10.0 mi North - - N/A   Clear
12:33 PM -5.8 °F - -16.6 °F 60% 30.20 in 10.0 mi North - - N/A   Clear
12:53 PM -5.8 °F - -16.6 °F 60% 30.19 in 10.0 mi North - - N/A   Clear
1:13 PM -4.0 °F - -16.6 °F 55% 30.19 in 10.0 mi North - - N/A   Clear
1:33 PM -2.2 °F - -14.8 °F 55% 30.18 in 10.0 mi North - - N/A   Clear
1:53 PM -2.2 °F - -14.8 °F 55% 30.18 in 10.0 mi North - - N/A   Clear
2:13 PM -2.2 °F - -14.8 °F 55% 30.18 in 10.0 mi North - - N/A   Clear
2:33 PM -2.2 °F - -14.8 °F 55% 30.17 in 10.0 mi North - - N/A   Clear
2:53 PM -2.2 °F - -14.8 °F 55% 30.17 in 10.0 mi North - - N/A   Clear
3:13 PM -2.2 °F - -14.8 °F 55% 30.16 in 10.0 mi North - - N/A   Clear
3:33 PM -2.2 °F -16.8 °F -14.8 °F 55% 30.16 in 10.0 mi WSW 8.1 mph - N/A   Clear
3:53 PM -2.2 °F -12.5 °F -14.8 °F 55% 30.16 in 10.0 mi SW 4.6 mph - N/A   Clear
4:13 PM -2.2 °F -18.9 °F -14.8 °F 55% 30.15 in 10.0 mi WSW 10.4 mph - N/A   Clear
4:33 PM -4.0 °F -16.3 °F -14.8 °F 60% 30.16 in 10.0 mi WSW 5.8 mph - N/A   Clear
4:53 PM -5.8 °F -21.2 °F -14.8 °F 65% 30.16 in 10.0 mi SSW 8.1 mph - N/A   Clear
5:13 PM -5.8 °F -18.4 °F -14.8 °F 65% 30.15 in 10.0 mi SSW 5.8 mph - N/A   Clear
5:33 PM -5.8 °F -16.7 °F -14.8 °F 65% 30.14 in 10.0 mi SSW 4.6 mph - N/A   Clear
5:53 PM -7.6 °F -16.5 °F -16.6 °F 65% 30.14 in 10.0 mi SSW 3.5 mph - N/A   Clear
6:13 PM -9.4 °F - -16.6 °F 71% 30.14 in 10.0 mi Calm Calm - N/A   Clear
6:33 PM -11.2 °F - -18.4 °F 70% 30.13 in 10.0 mi Calm Calm - N/A   Clear
6:53 PM -11.2 °F - -16.6 °F 77% 30.12 in 10.0 mi Calm Calm - N/A   Clear
7:13 PM -13.0 °F - -18.4 °F 77% 30.12 in 10.0 mi Calm Calm - N/A   Clear
7:33 PM -11.2 °F - -18.4 °F 70% 30.11 in 10.0 mi Calm Calm - N/A   Clear
7:53 PM -13.0 °F -22.7 °F -18.4 °F 77% 30.10 in 10.0 mi SW 3.5 mph - N/A   Clear
8:13 PM -16.6 °F -26.8 °F -22.0 °F 76% 30.10 in 10.0 mi SSW 3.5 mph - N/A   Clear
8:33 PM -14.8 °F - -20.2 °F 77% 30.10 in 10.0 mi Calm Calm - N/A   Clear
8:53 PM -16.6 °F - -22.0 °F 76% 30.10 in 10.0 mi Calm Calm - N/A   Clear
9:13 PM -16.6 °F - -22.0 °F 76% 30.10 in 10.0 mi Calm Calm - N/A   Clear
9:33 PM -16.6 °F - -23.8 °F 70% 30.10 in 10.0 mi Calm Calm - N/A   Mostly Cloudy
9:53 PM -16.6 °F - -23.8 °F 70% 30.10 in 10.0 mi Calm Calm - N/A   Overcast
10:13 PM -16.6 °F - -23.8 °F 70% 30.10 in 10.0 mi Calm Calm - N/A   Overcast
10:53 PM -14.8 °F - -20.2 °F 77% 30.09 in 10.0 mi Calm Calm - N/A   Overcast
11:13 PM -14.8 °F - -20.2 °F 77% 30.09 in 10.0 mi Calm Calm - N/A   Overcast
11:33 PM -14.8 °F - -20.2 °F 77% 30.08 in 10.0 mi Calm Calm - N/A   Overcast
11:53 PM -14.8 °F - -20.2 °F 77% 30.08 in 10.0 mi Calm Calm - N/A   Mostly Cloudy